Hourly Data Report for October 14, 2016

All times are specified in Local Standard Time (LST). Add 1 hour to adjust for Daylight Saving Time where and when it is observed.

EUREKA CLIMATE
NUNAVUT

79°59'21.000" N
85°56'02.000" W
10.00 m
2401199
71613
NEK

Download Data

Hourly Data (October 2016)
Hourly Data Report for October 14, 2016
Temp Definition
°C
Dew Point Temp Definition
°C
Rel Hum Definition
%
Wind Dir Definition
10's deg

Wind Spd Definition
km/h
Visibility Definition
km
Stn Press Definition
kPa
Hmdx Definition


Wind Chill Definition


Weather Definition


TIME
00:00 -25.5 -27.7 82 10 3   101.37   -29 LegendNANA
01:00 -25.2 -27.4 82 10 4   101.38   -29 LegendNANA
02:00 -25.8 -28.1 81 5 3   101.37   -29 LegendNANA
03:00 -26.4 -28.7 81 3 5   101.39   -32 LegendNANA
04:00 -25.1 -27.3 82 13 1   101.39   -26 LegendNANA
05:00 -24.6 -26.7 83 10 1   101.39   -26 LegendNANA
06:00 -23.5 -25.5 84 12 2   101.40   -25 LegendNANA
07:00 -23.0 -25.0 84 6 2   101.41   -25 LegendNANA
08:00 -23.4 -25.4 84 11 1   101.43   -24 LegendNANA
09:00 -23.6 -25.6 84 9 2   101.43   -26 LegendNANA
10:00 -22.3 -24.2 85 10 2   101.45   -24 LegendNANA
11:00 -22.3 -24.1 85 11 3   101.45   -25 LegendNANA
12:00 -21.5 -23.3 85 12 3   101.46   -24 LegendNANA
13:00 -21.8 -23.6 85 12 2   101.45   -24 LegendNANA
14:00 -22.4 -24.2 85 11 3   101.45   -25 LegendNANA
15:00 -22.4 -24.2 85 11 2   101.47   -24 LegendNANA
16:00 -23.8 -25.9 83 12 1   101.49   -25 LegendNANA
17:00 -24.2 -26.2 83 7 2   101.50   -26 LegendNANA
18:00 -24.1 -26.1 83 11 1   101.50   -25 LegendNANA
19:00 -23.6 -25.6 83 11 2   101.48   -26 LegendNANA
20:00 -24.0 -26.1 83 12 4   101.48   -28 LegendNANA
21:00 -24.0 -26.0 83 10 3   101.47   -27 LegendNANA
22:00 -24.9 -27.1 82 11 3   101.46   -28 LegendNANA
23:00 -25.4 -27.6 82 13 2   101.44   -27 LegendNANA

Notes on Data Quality.

Legend

  • E = Estimated
  • M = Missing
  • NA = Not Available
  • ‡ = Partner data that is not subject to review by the National Climate Archives
Date modified: